SCP
0 0 0 0 0 0 0 0 0 0 0 0 0 0 0 0 0 0 0 0 0 0 0 0 0 0 0 0 0 0 0 0 0 0 0 0 0 0 0 0 0 0 0
0 0 0 0 0 0 0 0 0 0 0 0 0 0 0 0 0 0 0 0 0 0 0 0 0 0 0 0 0 0 0 0 0 0 0 0 0 0 0 0 0 0 0
0 0 0 0 0 0 0 0 0 0 0 0 0 0 0 0 0 0 0 0 0 0 0 0 0 0 0 0 0 0 0 0 0 0 0 0 0 0 0 0 0 0 0
0 0 0 0 0 0 0 0 0 0 0 0 0 0 0 0 0 0 0 0 0 0 0 0 0 0 0 0 0 0 0 0 0 0 0 0 0 0 0 0 0 0 0
0 0 0 0 0 0 0 0 0 0 0 0 0 0 0 0 0 0 0 0 0 0 0 0 0 0 0 0 0 0 0 0 0 0 0 0 0 0 0 0 0 0 0
0 0 0 0 0 0 0 0 0 0 0 0 0 0 0 0 0 0 0 0 0 0 0 0 0 0 0 0 0 0 0 0 0 0 0 0 0 0 0 0 0 0 0
0 0 0 0 0 0 0 0 0 0 0 0 0 0 0 0 0 0 0 0 0 0 0 0 0 0 0 0 0 0 0 0 0 0 0 0 0 0 0 0 0 0 0
0 0 0 0 0 0 0 0 0 0 0 0 0 0 0 0 0 0 0 0 0 0 0 0 0 0 0 0 0 0 0 0 0 0 0 0 0 0 0 0 0 0 0
0 0 0 0 0 0 0 0 0 0 0 0 0 0 0 0 0 0 0 0 0 0 0 0 0 0 0 0 0 0 0 0 0 0 0 0 0 0 0 0 0 0 0
0 0 0 0 0 0 0 0 0 0 0 0 0 0 0 0 0 0 0 0 0 0 0 0 0 0 0 0 0 0 0 0 0 0 0 0 0 0 0 0 0 0 0
0 0 0 0 0 0 0 0 0 0 0 0 0 0 0 0 0 0 0 0 0 0 0 0 0 0 0 0 0 0 0 0 0 0 0 0 0 0 0 0 0 0 0
0 0 0 0 0 0 0 0 0 0 0 0 0 0 0 0 0 0 0 0 0 0 0 0 0 0 0 0 0 0 0 0 0 0 0 0 0 0 0 0 0 0 0
0 0 0 0 0 0 0 0 0 0 0 0 0 0 0 0 0 0 0 0 0 0 0 0 0 0 0 0 0 0 0 0 0 0 0 0 0 0 0 0 0 0 0
0 0 0 0 0 0 0 0 0 0 0 0 0 0 0 0 0 0 0 0 0 0 0 0 0 0 0 0 0 0 0 0 0 0 0 0 0 0 0 0 0 0 0
0 0 0 0 0 0 0 0 0 0 0 0 0 0 0 0 0 0 0 0 0 0 0 0 0 0 0 0 0 0 0 0 0 0 0 0 0 0 0 0 0 0 0
0 0 0 0 0 0 0 0 0 0 0 0 0 0 0 0 0 0 0 0 0 0 0 0 0 0 0 0 0 0 0 0 0 0 0 0 0 0 0 0 0 0 0
0 0 0 0 0 0 0 0 0 0 0 0 0 0 0 0 0 0 0 0 0 0 0 0 0 0 0 0 0 0 0 0 0 0 0 0 0 0 0 0 0 0 0
0 0 0 0 0 0 0 0 0 0 0 0 0 0 0 0 0 0 0 0 0 0 0 0 0 0 0 0 0 0 0 0 0 0 0 0 0 0 0 0 0 0 0
0 0 0 0 0 0 0 0 0 0 0 0 0 0 0 0 0 0 0 0 0 0 0 0 0 0 0 0 0 0 0 0 0 0 0 0 0 0 0 0 0 0 0
0 0 0 0 0 0 0 0 0 0 0 0 0 0 0 0 0 0 0 0 0 0 0 0 0 0 0 0 0 0 0 0 0 0 0 0 0 0 0 0 0 0 0
0 0 0 0 0 0 0 0 0 0 0 0 0 0 0 0 0 0 0 0 0 0 0 0 0 0 0 0 0 0 0 0 0 0 0 0 0 0 0 0 0 0 0
0 0 0 0 0 0 0 0 0 0 0 0 0 0 0 0 0 0 0 0 0 0 0 0 0 0 0 0 0 0 0 0 0 0 0 0 0 0 0 0 0 0 0
0 0 0 0 0 0 0 0 0 0 0 0 0 0 0 0 0 0 0 0 0 0 0 0 0 0 0 0 0 0 0 0 0 0 0 0 0 0 0 0 0 0 0
0 0 0 0 0 0 0 0 0 0 0 0 0 0 0 0 0 0 0 0 0 0 0 0 0 0 0 0 0 0 0 0 0 0 0 0 0 0 0 0 0 0 0
0 0 0 0 0 0 0 0 0 0 0 0 0 0 0 0 0 0 0 0 0 0 0 0 0 0 0 0 0 0 0 0 0 0 0 0 0 0 0 0 0 0 0
0 0 0 0 0 0 0 0 0 0 0 0 0 0 0 0 0 0 0 0 0 0 0 0 0 0 0 0 0 0 0 0 0 0 0 0 0 0 0 0 0 0 0
Wind_Speed_500mb
64 62 69 64 57 55 52 47 40 33 33 25 18 12 10 9 8 10 10 11 13 16 19 23 25 29 32 35 38 39 40 45 54 63 63 65 64 66 64 61 57 65 67
63 70 63 54 53 54 49 40 41 35 29 25 17 14 12 12 12 11 11 13 15 19 23 27 30 34 36 38 40 43 44 46 53 61 64 66 66 68 70 66 68 70 74
83 76 65 58 49 43 41 41 38 34 28 20 18 15 14 14 12 12 14 15 19 23 27 30 34 37 39 40 43 44 46 48 50 57 66 66 71 71 72 73 75 80 80
69 65 58 46 47 47 44 40 35 31 24 20 17 16 16 15 14 14 16 19 22 25 30 35 38 41 42 43 43 43 46 49 51 57 64 69 72 73 74 80 89 85 92
67 56 44 40 44 45 40 38 32 26 21 19 19 19 19 16 17 17 20 22 25 30 35 38 41 42 41 43 42 42 46 48 51 57 63 67 73 76 77 83 87 97 102
53 46 48 48 46 42 40 33 27 23 20 21 21 21 20 18 21 22 22 27 31 33 37 40 43 44 42 41 38 41 42 43 49 52 57 64 67 71 79 83 90 96 102
47 49 47 47 45 40 33 29 24 18 20 23 24 24 23 23 25 26 28 32 35 37 41 42 44 43 43 43 42 42 43 45 45 44 55 55 63 71 79 87 87 90 93
47 48 48 45 40 34 29 23 20 22 23 26 25 26 27 26 28 31 34 38 40 43 45 45 46 44 44 47 45 46 49 48 49 50 53 59 66 72 76 79 84 89 90
51 50 45 43 39 32 26 22 22 23 24 25 26 29 31 30 34 38 40 42 43 45 48 50 46 46 45 46 46 49 49 49 48 51 58 62 66 69 71 77 75 77 90
52 46 44 39 35 29 22 22 22 22 23 27 30 33 35 36 40 43 44 45 47 48 50 50 47 47 47 46 46 46 47 49 58 60 59 60 63 65 64 59 61 66 68
50 46 41 37 34 24 24 24 21 23 27 30 35 37 39 40 41 43 45 50 52 51 51 49 45 47 45 44 40 39 43 56 59 62 63 64 65 65 61 61 59 57 61
45 44 42 39 30 29 27 24 23 28 32 34 36 37 37 39 41 45 51 54 53 54 50 47 43 45 48 45 38 42 54 58 59 61 63 64 66 64 66 65 62 59 55
47 47 40 34 32 32 31 28 31 31 33 34 36 39 39 40 44 48 52 55 55 52 47 44 44 47 44 41 42 46 49 53 57 59 60 61 61 64 64 65 62 60 58
49 42 38 38 36 33 32 31 33 35 33 33 36 42 44 49 51 53 54 53 49 46 46 45 44 44 39 38 41 45 49 54 55 56 58 58 60 61 61 62 63 61 62
44 41 41 39 36 33 33 34 38 33 31 33 37 44 50 52 49 52 52 48 44 40 44 45 42 35 34 38 44 49 50 50 51 53 53 59 59 61 59 54 53 53 54
44 43 42 39 36 34 36 37 34 30 29 32 38 45 47 51 49 50 48 42 39 34 39 36 32 33 39 44 48 49 48 49 51 53 56 59 59 60 58 50 47 51 62
49 44 41 39 37 37 37 34 29 28 30 33 38 42 48 51 48 47 46 41 37 33 39 38 42 46 49 49 48 49 47 48 51 52 55 55 58 55 53 47 49 57 64
48 44 42 39 37 35 36 34 33 32 32 35 39 45 49 49 47 45 44 41 42 42 41 44 49 53 51 47 46 46 45 47 47 50 50 52 53 52 46 42 50 62 72
43 42 41 37 36 40 41 39 36 35 36 40 44 47 51 55 49 44 42 46 44 44 46 48 50 49 45 43 42 42 44 44 46 46 48 48 46 46 39 42 53 64 75
44 45 42 40 42 45 44 42 38 39 43 44 47 46 55 58 50 42 42 44 44 42 43 47 47 44 42 40 38 40 43 42 43 45 46 43 40 38 38 45 57 70 78
45 46 46 45 45 46 45 44 42 45 48 49 49 47 56 59 50 45 44 44 43 43 45 44 42 40 39 36 37 41 38 38 42 43 41 38 33 29 33 46 59 72 86
49 50 50 48 49 50 48 49 50 50 50 50 49 48 56 57 51 45 45 43 42 45 43 39 38 38 36 35 38 38 36 36 38 39 37 30 21 25 36 51 66 79 87
53 57 57 56 55 54 54 53 51 51 52 52 51 51 53 52 53 49 45 45 47 44 41 39 38 36 35 35 37 35 34 35 35 34 30 19 20 29 43 59 72 82 82
53 57 60 60 58 56 54 52 51 52 54 54 54 53 57 54 54 50 47 48 47 44 43 39 36 35 34 35 34 33 33 33 33 30 25 21 26 35 49 63 76 80 80
47 52 55 55 53 52 52 52 54 54 55 54 53 59 57 57 54 49 48 48 47 46 43 40 37 34 33 33 32 32 33 35 31 26 23 24 31 40 52 67 75 74 75
45 45 45 46 48 49 50 52 55 56 56 54 57 66 58 57 52 50 49 47 47 46 44 41 37 33 32 30 29 30 32 33 29 24 23 26 32 38 55 69 71 71 73
Wind_Direction_500mb
184 180 171 162 159 154 154 157 174 195 198 195 194 198 210 231 249 257 267 288 300 309 314 311 312 318 320 314 311 311 311 310 306 312 315 320 323 324 326 324 322 323 325
169 163 158 154 160 160 155 177 187 188 195 195 196 206 220 235 242 257 276 290 308 318 310 313 316 312 308 307 308 310 310 310 308 309 315 319 324 327 327 324 324 323 324
163 168 166 169 165 159 175 186 188 191 193 196 206 216 227 238 253 268 288 306 309 307 310 310 308 305 305 307 310 310 309 309 308 308 314 321 326 328 325 323 323 324 325
162 161 165 168 161 169 188 189 190 191 194 204 217 227 238 249 262 277 290 292 302 308 307 305 304 304 307 307 305 308 307 309 311 312 316 323 324 325 324 324 323 324 324
162 165 155 163 176 188 184 190 192 196 202 215 227 237 247 258 269 279 285 296 302 305 302 301 302 302 302 302 305 309 309 308 311 314 318 319 320 323 324 324 320 322 321
160 158 166 179 188 188 191 191 196 204 216 228 238 248 254 262 273 277 283 289 294 295 298 301 302 302 303 302 305 302 302 305 310 311 314 310 315 320 320 316 316 317 320
163 168 181 186 187 190 192 199 204 216 233 242 250 256 258 263 272 278 283 288 293 297 297 300 301 301 305 304 303 301 301 306 306 305 303 313 312 312 311 314 316 316 316
178 186 186 188 188 191 201 206 216 232 243 252 259 265 263 268 277 282 285 288 293 297 298 300 300 306 306 301 299 301 305 308 307 305 303 305 305 308 311 312 313 313 311
190 190 188 190 194 196 204 216 228 243 255 264 268 270 270 275 279 281 281 287 293 297 301 299 303 304 300 297 299 303 304 303 302 299 301 305 308 309 310 311 312 314 317
192 190 191 193 203 200 204 224 242 257 265 270 274 278 276 276 277 281 287 292 296 300 296 299 301 297 296 297 300 302 303 301 299 304 306 308 309 310 311 310 314 317 320
191 193 194 201 205 203 218 237 255 269 274 278 277 276 274 275 279 286 292 294 296 295 297 298 294 293 294 294 296 293 292 289 298 306 311 314 314 315 321 326 326 322 320
193 193 199 205 206 215 231 245 264 274 273 275 280 281 284 286 288 289 289 290 291 292 294 290 291 290 288 289 284 281 281 294 303 311 314 316 318 324 328 327 327 323 322
196 201 206 208 213 227 239 251 264 276 279 284 289 293 296 293 290 288 288 290 291 289 289 290 286 285 290 293 286 285 293 304 310 312 315 319 323 325 326 324 325 324 327
200 205 210 215 223 235 246 259 275 280 280 287 295 301 301 295 295 291 289 288 286 287 289 285 283 284 288 286 289 297 305 308 309 314 318 323 323 324 328 327 327 331 333
205 213 215 222 230 242 254 266 269 272 283 295 301 303 304 300 294 291 292 294 291 284 277 275 276 277 284 293 297 299 303 306 313 318 320 322 324 326 328 329 332 335 336
213 216 220 228 238 248 260 264 270 278 282 292 302 301 305 304 302 298 297 297 291 283 276 274 276 292 295 295 297 302 308 312 316 320 323 323 324 326 329 334 335 335 332
220 221 226 234 242 254 263 267 268 269 277 285 296 306 308 307 304 301 299 297 292 280 280 288 288 291 294 293 298 303 308 312 317 320 321 322 323 327 330 333 333 333 333
223 224 230 237 249 262 266 263 257 262 272 286 299 306 308 306 302 294 291 284 279 280 277 276 278 283 286 291 296 301 306 314 316 317 320 323 322 324 328 330 331 330 333
229 232 237 244 262 266 259 253 253 266 284 299 305 308 310 309 303 291 282 273 273 274 276 276 276 278 284 288 294 301 310 311 313 318 321 320 319 321 324 325 327 331 332
233 233 238 251 263 262 257 254 259 273 284 293 301 305 309 306 301 291 282 278 277 273 269 270 274 277 282 289 297 304 308 310 314 318 318 318 319 320 321 324 327 330 333
239 238 245 257 268 265 261 259 266 276 284 290 298 302 307 304 299 291 285 280 274 269 268 270 272 277 284 292 299 304 305 311 313 314 319 320 319 321 321 323 329 333 334
243 246 253 266 273 270 264 263 268 277 285 290 296 300 303 302 298 289 282 275 268 266 267 269 272 279 285 292 297 300 306 310 310 315 320 322 323 324 324 329 334 337 337
256 256 259 266 272 270 265 264 271 279 286 288 291 294 299 301 293 284 277 271 268 267 267 269 273 279 285 291 296 301 306 308 311 315 320 314 320 325 330 334 338 340 339
262 262 262 264 268 268 267 270 275 280 285 287 289 292 298 299 288 279 273 268 268 268 269 270 274 277 284 291 296 300 304 308 312 314 314 308 322 330 333 336 341 341 340
269 267 266 268 268 269 271 271 275 279 283 285 288 295 298 293 283 275 271 269 267 267 268 271 273 276 283 291 295 298 304 309 309 305 300 308 322 327 333 338 344 342 344
275 273 271 269 267 267 269 275 279 281 285 286 295 298 295 290 280 271 269 268 267 267 267 270 270 275 282 287 289 295 301 304 305 296 293 304 317 330 337 342 345 343 344
Wind_Speed_850mb
64 62 69 64 57 55 52 47 40 33 33 25 18 12 10 9 8 10 10 11 13 16 19 23 25 29 32 35 38 39 40 45 54 63 63 65 64 66 64 61 57 65 67
63 70 63 54 53 54 49 40 41 35 29 25 17 14 12 12 12 11 11 13 15 19 23 27 30 34 36 38 40 43 44 46 53 61 64 66 66 68 70 66 68 70 74
83 76 65 58 49 43 41 41 38 34 28 20 18 15 14 14 12 12 14 15 19 23 27 30 34 37 39 40 43 44 46 48 50 57 66 66 71 71 72 73 75 80 80
69 65 58 46 47 47 44 40 35 31 24 20 17 16 16 15 14 14 16 19 22 25 30 35 38 41 42 43 43 43 46 49 51 57 64 69 72 73 74 80 89 85 92
67 56 44 40 44 45 40 38 32 26 21 19 19 19 19 16 17 17 20 22 25 30 35 38 41 42 41 43 42 42 46 48 51 57 63 67 73 76 77 83 87 97 102
53 46 48 48 46 42 40 33 27 23 20 21 21 21 20 18 21 22 22 27 31 33 37 40 43 44 42 41 38 41 42 43 49 52 57 64 67 71 79 83 90 96 102
47 49 47 47 45 40 33 29 24 18 20 23 24 24 23 23 25 26 28 32 35 37 41 42 44 43 43 43 42 42 43 45 45 44 55 55 63 71 79 87 87 90 93
47 48 48 45 40 34 29 23 20 22 23 26 25 26 27 26 28 31 34 38 40 43 45 45 46 44 44 47 45 46 49 48 49 50 53 59 66 72 76 79 84 89 90
51 50 45 43 39 32 26 22 22 23 24 25 26 29 31 30 34 38 40 42 43 45 48 50 46 46 45 46 46 49 49 49 48 51 58 62 66 69 71 77 75 77 90
52 46 44 39 35 29 22 22 22 22 23 27 30 33 35 36 40 43 44 45 47 48 50 50 47 47 47 46 46 46 47 49 58 60 59 60 63 65 64 59 61 66 68
50 46 41 37 34 24 24 24 21 23 27 30 35 37 39 40 41 43 45 50 52 51 51 49 45 47 45 44 40 39 43 56 59 62 63 64 65 65 61 61 59 57 61
45 44 42 39 30 29 27 24 23 28 32 34 36 37 37 39 41 45 51 54 53 54 50 47 43 45 48 45 38 42 54 58 59 61 63 64 66 64 66 65 62 59 55
47 47 40 34 32 32 31 28 31 31 33 34 36 39 39 40 44 48 52 55 55 52 47 44 44 47 44 41 42 46 49 53 57 59 60 61 61 64 64 65 62 60 58
49 42 38 38 36 33 32 31 33 35 33 33 36 42 44 49 51 53 54 53 49 46 46 45 44 44 39 38 41 45 49 54 55 56 58 58 60 61 61 62 63 61 62
44 41 41 39 36 33 33 34 38 33 31 33 37 44 50 52 49 52 52 48 44 40 44 45 42 35 34 38 44 49 50 50 51 53 53 59 59 61 59 54 53 53 54
44 43 42 39 36 34 36 37 34 30 29 32 38 45 47 51 49 50 48 42 39 34 39 36 32 33 39 44 48 49 48 49 51 53 56 59 59 60 58 50 47 51 62
49 44 41 39 37 37 37 34 29 28 30 33 38 42 48 51 48 47 46 41 37 33 39 38 42 46 49 49 48 49 47 48 51 52 55 55 58 55 53 47 49 57 64
48 44 42 39 37 35 36 34 33 32 32 35 39 45 49 49 47 45 44 41 42 42 41 44 49 53 51 47 46 46 45 47 47 50 50 52 53 52 46 42 50 62 72
43 42 41 37 36 40 41 39 36 35 36 40 44 47 51 55 49 44 42 46 44 44 46 48 50 49 45 43 42 42 44 44 46 46 48 48 46 46 39 42 53 64 75
44 45 42 40 42 45 44 42 38 39 43 44 47 46 55 58 50 42 42 44 44 42 43 47 47 44 42 40 38 40 43 42 43 45 46 43 40 38 38 45 57 70 78
45 46 46 45 45 46 45 44 42 45 48 49 49 47 56 59 50 45 44 44 43 43 45 44 42 40 39 36 37 41 38 38 42 43 41 38 33 29 33 46 59 72 86
49 50 50 48 49 50 48 49 50 50 50 50 49 48 56 57 51 45 45 43 42 45 43 39 38 38 36 35 38 38 36 36 38 39 37 30 21 25 36 51 66 79 87
53 57 57 56 55 54 54 53 51 51 52 52 51 51 53 52 53 49 45 45 47 44 41 39 38 36 35 35 37 35 34 35 35 34 30 19 20 29 43 59 72 82 82
53 57 60 60 58 56 54 52 51 52 54 54 54 53 57 54 54 50 47 48 47 44 43 39 36 35 34 35 34 33 33 33 33 30 25 21 26 35 49 63 76 80 80
47 52 55 55 53 52 52 52 54 54 55 54 53 59 57 57 54 49 48 48 47 46 43 40 37 34 33 33 32 32 33 35 31 26 23 24 31 40 52 67 75 74 75
45 45 45 46 48 49 50 52 55 56 56 54 57 66 58 57 52 50 49 47 47 46 44 41 37 33 32 30 29 30 32 33 29 24 23 26 32 38 55 69 71 71 73
Wind_Direction_850mb
184 180 171 162 159 154 154 157 174 195 198 195 194 198 210 231 249 257 267 288 300 309 314 311 312 318 320 314 311 311 311 310 306 312 315 320 323 324 326 324 322 323 325
169 163 158 154 160 160 155 177 187 188 195 195 196 206 220 235 242 257 276 290 308 318 310 313 316 312 308 307 308 310 310 310 308 309 315 319 324 327 327 324 324 323 324
163 168 166 169 165 159 175 186 188 191 193 196 206 216 227 238 253 268 288 306 309 307 310 310 308 305 305 307 310 310 309 309 308 308 314 321 326 328 325 323 323 324 325
162 161 165 168 161 169 188 189 190 191 194 204 217 227 238 249 262 277 290 292 302 308 307 305 304 304 307 307 305 308 307 309 311 312 316 323 324 325 324 324 323 324 324
162 165 155 163 176 188 184 190 192 196 202 215 227 237 247 258 269 279 285 296 302 305 302 301 302 302 302 302 305 309 309 308 311 314 318 319 320 323 324 324 320 322 321
160 158 166 179 188 188 191 191 196 204 216 228 238 248 254 262 273 277 283 289 294 295 298 301 302 302 303 302 305 302 302 305 310 311 314 310 315 320 320 316 316 317 320
163 168 181 186 187 190 192 199 204 216 233 242 250 256 258 263 272 278 283 288 293 297 297 300 301 301 305 304 303 301 301 306 306 305 303 313 312 312 311 314 316 316 316
178 186 186 188 188 191 201 206 216 232 243 252 259 265 263 268 277 282 285 288 293 297 298 300 300 306 306 301 299 301 305 308 307 305 303 305 305 308 311 312 313 313 311
190 190 188 190 194 196 204 216 228 243 255 264 268 270 270 275 279 281 281 287 293 297 301 299 303 304 300 297 299 303 304 303 302 299 301 305 308 309 310 311 312 314 317
192 190 191 193 203 200 204 224 242 257 265 270 274 278 276 276 277 281 287 292 296 300 296 299 301 297 296 297 300 302 303 301 299 304 306 308 309 310 311 310 314 317 320
191 193 194 201 205 203 218 237 255 269 274 278 277 276 274 275 279 286 292 294 296 295 297 298 294 293 294 294 296 293 292 289 298 306 311 314 314 315 321 326 326 322 320
193 193 199 205 206 215 231 245 264 274 273 275 280 281 284 286 288 289 289 290 291 292 294 290 291 290 288 289 284 281 281 294 303 311 314 316 318 324 328 327 327 323 322
196 201 206 208 213 227 239 251 264 276 279 284 289 293 296 293 290 288 288 290 291 289 289 290 286 285 290 293 286 285 293 304 310 312 315 319 323 325 326 324 325 324 327
200 205 210 215 223 235 246 259 275 280 280 287 295 301 301 295 295 291 289 288 286 287 289 285 283 284 288 286 289 297 305 308 309 314 318 323 323 324 328 327 327 331 333
205 213 215 222 230 242 254 266 269 272 283 295 301 303 304 300 294 291 292 294 291 284 277 275 276 277 284 293 297 299 303 306 313 318 320 322 324 326 328 329 332 335 336
213 216 220 228 238 248 260 264 270 278 282 292 302 301 305 304 302 298 297 297 291 283 276 274 276 292 295 295 297 302 308 312 316 320 323 323 324 326 329 334 335 335 332
220 221 226 234 242 254 263 267 268 269 277 285 296 306 308 307 304 301 299 297 292 280 280 288 288 291 294 293 298 303 308 312 317 320 321 322 323 327 330 333 333 333 333
223 224 230 237 249 262 266 263 257 262 272 286 299 306 308 306 302 294 291 284 279 280 277 276 278 283 286 291 296 301 306 314 316 317 320 323 322 324 328 330 331 330 333
229 232 237 244 262 266 259 253 253 266 284 299 305 308 310 309 303 291 282 273 273 274 276 276 276 278 284 288 294 301 310 311 313 318 321 320 319 321 324 325 327 331 332
233 233 238 251 263 262 257 254 259 273 284 293 301 305 309 306 301 291 282 278 277 273 269 270 274 277 282 289 297 304 308 310 314 318 318 318 319 320 321 324 327 330 333
239 238 245 257 268 265 261 259 266 276 284 290 298 302 307 304 299 291 285 280 274 269 268 270 272 277 284 292 299 304 305 311 313 314 319 320 319 321 321 323 329 333 334
243 246 253 266 273 270 264 263 268 277 285 290 296 300 303 302 298 289 282 275 268 266 267 269 272 279 285 292 297 300 306 310 310 315 320 322 323 324 324 329 334 337 337
256 256 259 266 272 270 265 264 271 279 286 288 291 294 299 301 293 284 277 271 268 267 267 269 273 279 285 291 296 301 306 308 311 315 320 314 320 325 330 334 338 340 339
262 262 262 264 268 268 267 270 275 280 285 287 289 292 298 299 288 279 273 268 268 268 269 270 274 277 284 291 296 300 304 308 312 314 314 308 322 330 333 336 341 341 340
269 267 266 268 268 269 271 271 275 279 283 285 288 295 298 293 283 275 271 269 267 267 268 271 273 276 283 291 295 298 304 309 309 305 300 308 322 327 333 338 344 342 344
275 273 271 269 267 267 269 275 279 281 285 286 295 298 295 290 280 271 269 268 267 267 267 270 270 275 282 287 289 295 301 304 305 296 293 304 317 330 337 342 345 343 344